Sierra Vista, AZ

6:40 PM MST on July 25, 2017 (GMT -0700)
Sierra Vista Municipal-Libby Army Air Field

Weather History for KFHU - November, 2012

Change the Weather History Date:

Friday, November 16, 2012

  Actual Average Record
Temperature  
Mean Temperature 61 °F -  
Max Temperature 69 °F 66 °F 78 °F (1983)
Min Temperature 53 °F 44 °F 26 °F (1993)
Degree Days  
Heating Degree Days 4    
Growing Degree Days 11 (Base 50)    
Moisture  
Dew Point 27 °F    
Average Humidity 28    
Maximum Humidity 41    
Minimum Humidity 20    
Precipitation  
Precipitation 0.00 in - - ()
Sea Level Pressure  
Sea Level Pressure 30.07 in    
Wind  
Wind Speed 4 mph (West)    
Max Wind Speed 14 mph    
Max Gust Speed -    
Visibility 10 miles    
Events Rain    
Averages and records for this station are not official NWS values.
T = Trace of Precipitation, MM = Missing Value Source: NWS Daily Summary

Daily Weather History Graph

Daily Weather History Graph

Search for Another Location

Airport or City:

Trip Planner

Search our weather history database for the weather conditions in past years. The results will help you decide how hot, cold, wet, or windy it might be!

Date:

Astronomy

Nov. 16, 2012 Rise Set
Actual Time 6:50 AM MST 5:21 PM MST
Civil Twilight 6:24 AM MST 5:47 PM MST
Nautical Twilight 5:55 AM MST 6:16 PM MST
Astronomical Twilight 5:26 AM MST 6:45 PM MST
Moon 9:45 AM MST (11/16) 8:27 PM MST (11/16)
Length of Visible Light 11h 22m
Length of Day
10h 30m
Waxing Crescent, 12% of the Moon is Illuminated
Nov 16
Waxing Crescent
Nov 20
First Quarter
Nov 28
Full
Dec 6
Last Quarter
Dec 13
New

Hourly Weather History & Observations

Time (MST) Temp. Dew Point Humidity Pressure Visibility Wind Dir Wind Speed Gust Speed Precip Events Conditions
12:55 AM 60.8 °F 21.2 °F 22% 30.06 in 10.0 mi Calm Calm - N/A   Overcast
1:55 AM 59.0 °F 21.2 °F 23% 30.04 in 10.0 mi Variable 2.3 mph - N/A   Overcast
2:55 AM 55.4 °F 24.8 °F 31% 30.04 in - Variable 3.5 mph - N/A   Mostly Cloudy
3:55 AM 55.4 °F 24.8 °F 31% 30.03 in 10.0 mi West 5.8 mph - N/A   Overcast
4:55 AM 59.0 °F 23.0 °F 25% 30.03 in 10.0 mi Calm Calm - N/A   Overcast
5:55 AM 55.4 °F 26.6 °F 33% 30.05 in 10.0 mi WSW 4.6 mph - N/A   Overcast
6:55 AM 55.4 °F 24.8 °F 31% 30.07 in 10.0 mi SW 3.5 mph - N/A   Mostly Cloudy
7:55 AM 57.2 °F 26.6 °F 31% 30.07 in 10.0 mi Calm Calm - N/A   Mostly Cloudy
8:55 AM 62.6 °F 24.8 °F 24% 30.09 in 10.0 mi Calm Calm - N/A   Mostly Cloudy
9:55 AM 66.2 °F 26.6 °F 23% 30.09 in 10.0 mi Calm Calm - N/A   Mostly Cloudy
10:55 AM 69.8 °F 30.2 °F 23% 30.09 in 10.0 mi Calm Calm - N/A   Mostly Cloudy
11:55 AM 69.8 °F 33.8 °F 27% 30.06 in 10.0 mi WNW 11.5 mph - N/A   Mostly Cloudy
12:55 PM 69.8 °F 26.6 °F 20% 30.06 in 10.0 mi WNW 13.8 mph - N/A   Mostly Cloudy
1:55 PM 69.8 °F 28.4 °F 21% 30.04 in 10.0 mi WNW 8.1 mph - N/A   Mostly Cloudy
2:55 PM 69.8 °F 30.2 °F 23% 30.03 in 10.0 mi NW 8.1 mph - N/A   Mostly Cloudy
3:55 PM 68.0 °F 30.2 °F 24% 30.05 in 10.0 mi NW 6.9 mph - N/A Rain Light Rain
4:16 PM 69.8 °F 30.2 °F 23% 30.17 in 10.0 mi WNW 13.8 mph - N/A   Mostly Cloudy
4:55 PM 68.0 °F 30.2 °F 24% 30.04 in 10.0 mi WNW 12.7 mph - N/A   Mostly Cloudy
5:55 PM 60.8 °F 28.4 °F 29% 30.07 in 10.0 mi West 5.8 mph - N/A   Scattered Clouds
6:55 PM 59.0 °F 26.6 °F 29% 30.11 in 10.0 mi SW 4.6 mph - N/A   Scattered Clouds
7:55 PM 57.2 °F 28.4 °F 33% 30.10 in 10.0 mi SW 6.9 mph - N/A   Scattered Clouds
8:55 PM 57.2 °F 28.4 °F 33% 30.09 in 10.0 mi Variable 2.3 mph - N/A   Partly Cloudy
9:55 PM 55.4 °F 28.4 °F 36% 30.10 in 10.0 mi Variable 2.3 mph - N/A   Partly Cloudy
10:55 PM 53.6 °F 30.2 °F 41% 30.09 in 10.0 mi SSW 4.6 mph - N/A   Partly Cloudy
11:55 PM 53.6 °F 30.2 °F 41% 30.09 in 10.0 mi SSW 4.6 mph - N/A   Partly Cloudy